Theta_e
323 322 321 319 318 317 317 317 317 316 317 317 317 317 317 316 316 316 316 316 316 316 316 316 316 315 312 307 306 316 323 326 320 315 310 308 307 307 304 307 309 310 311 312 315 316 314
322 322 320 319 317 317 317 316 316 316 316 316 316 316 316 316 315 316 316 316 315 315 315 315 316 316 310 302 317 317 314 317 320 314 309 309 308 309 307 307 307 313 313 313 315 312 311
322 321 319 318 317 317 317 316 315 315 316 316 316 316 316 316 315 315 315 315 314 314 314 314 316 314 309 308 318 315 316 319 318 314 308 310 312 309 308 305 312 313 307 309 310 311 311
319 319 318 318 317 317 316 316 315 315 315 315 315 315 315 314 314 314 314 314 314 314 314 316 318 313 304 319 321 318 315 315 321 316 312 312 313 310 308 310 309 306 307 300 306 311 314
318 318 318 317 317 317 316 315 314 314 314 314 314 314 313 312 313 313 313 313 313 314 315 317 314 310 305 320 313 316 316 311 318 314 313 313 311 307 307 302 301 305 297 302 304 314 313
317 317 317 317 317 316 316 315 315 314 314 314 313 313 312 311 311 312 312 312 314 313 314 315 313 303 308 309 314 314 316 314 314 311 307 305 305 301 302 300 293 299 300 303 302 310 311
313 314 314 315 316 316 315 315 315 314 314 314 313 313 312 312 311 311 310 309 306 304 307 304 305 305 310 315 315 311 314 314 314 308 299 302 298 296 299 303 303 304 301 301 304 307 306
310 311 312 312 313 314 314 314 314 314 314 314 314 312 311 311 310 310 310 302 306 308 301 308 309 309 312 314 307 309 314 308 305 298 301 299 295 301 303 303 302 302 299 298 301 305 303
309 310 311 311 311 312 311 311 312 313 313 312 312 311 309 310 309 308 307 307 313 312 300 305 309 308 309 313 307 307 310 308 302 299 299 296 299 302 301 300 299 300 299 298 298 302 304
309 309 309 310 309 310 309 309 310 310 310 310 311 311 310 309 305 308 308 314 314 312 292 300 305 308 311 311 305 313 311 307 303 299 300 299 303 300 299 298 300 297 303 301 300 299 295
307 307 307 308 308 308 308 308 308 309 309 309 309 310 310 309 304 302 307 310 314 306 284 302 305 315 311 306 307 308 310 306 301 300 301 298 300 299 298 299 302 299 304 302 302 300 300
307 307 307 307 307 307 307 308 308 308 308 308 309 309 309 306 306 306 311 309 306 290 284 298 306 304 304 305 307 308 304 306 307 302 302 302 306 303 301 303 303 305 303 302 302 300 293
306 306 306 306 307 307 307 306 307 308 308 308 308 308 307 306 301 310 308 303 288 284 299 296 302 304 303 301 304 304 300 298 298 294 295 299 301 304 304 301 304 303 301 293 291 291 291
306 307 307 307 307 307 307 306 306 307 307 308 307 306 306 309 313 311 304 293 282 292 295 302 303 304 299 301 302 301 298 296 301 299 296 293 293 301 304 303 300 301 300 294 287 288 293
306 307 307 308 308 308 307 306 306 306 306 306 305 308 308 310 312 310 297 285 286 294 300 298 302 298 298 301 302 300 298 297 300 302 296 295 296 303 304 305 305 300 297 303 297 299 295
306 307 306 308 308 308 308 307 307 307 306 306 303 305 307 312 309 303 291 287 293 298 299 303 293 301 297 297 299 299 298 299 298 302 306 301 295 301 303 305 305 303 305 297 298 290 289
307 306 307 308 308 308 308 308 307 307 306 305 303 299 310 315 306 295 287 290 294 298 299 301 299 296 300 299 301 298 298 299 301 301 304 303 300 298 302 300 299 300 300 301 301 299 293
306 306 307 308 308 307 307 307 307 307 305 304 300 292 310 309 293 292 292 295 296 298 300 301 302 296 298 301 300 298 297 300 303 302 299 304 301 295 298 304 306 304 302 302 296 295 298
306 306 307 307 308 307 307 307 307 307 306 304 296 299 309 305 289 288 293 297 300 298 297 299 300 300 301 296 295 301 302 305 304 302 301 305 300 293 296 300 304 302 303 304 303 303 298
305 306 307 307 307 307 307 307 307 307 306 305 298 292 301 297 296 289 291 295 298 303 298 302 300 301 297 294 298 300 299 305 305 303 311 308 301 299 293 297 301 299 301 302 301 297 298
305 305 306 307 307 307 307 307 307 307 306 305 300 293 296 292 293 294 294 294 293 297 303 301 299 299 296 292 297 298 303 304 303 307 305 305 297 298 299 301 301 298 300 301 301 302 297
305 305 305 307 307 307 307 307 307 307 306 305 298 293 294 293 297 294 293 291 290 298 296 294 295 296 293 289 297 297 303 303 302 305 304 307 298 300 296 302 302 299 301 302 302 302 302
305 305 305 306 307 307 307 307 308 307 306 302 304 303 294 293 295 290 288 289 294 299 299 300 299 295 290 290 301 305 309 308 308 304 303 303 301 298 292 299 298 294 299 301 302 303 301
305 305 304 306 307 307 307 307 308 308 307 308 305 300 292 289 292 291 292 293 293 298 296 298 300 299 299 306 304 305 305 307 307 306 307 303 301 301 294 297 288 298 301 302 301 300 301
304 304 304 305 307 307 307 308 308 308 308 307 309 302 295 289 293 293 293 293 292 294 295 298 299 303 307 303 296 291 293 297 298 302 305 307 301 298 293 292 294 295 298 297 297 297 302
303 303 304 305 307 307 307 308 308 308 308 308 309 308 300 293 293 295 293 295 290 290 292 298 304 307 307 300 294 287 286 290 289 293 303 302 304 299 296 289 285 297 302 305 305 295 304
304 304 304 304 306 307 307 308 308 309 308 307 307 312 304 297 300 299 293 292 298 295 293 299 301 303 306 298 293 289 289 295 289 290 295 297 297 294 293 293 296 303 303 305 293 298 307
304 304 304 305 306 307 307 308 308 309 308 307 307 312 304 298 300 302 300 297 299 299 294 301 301 301 301 297 295 295 293 294 293 295 295 294 293 293 294 291 288 305 303 298 305 308 309
304 305 305 305 306 307 308 308 308 308 308 307 302 309 309 303 302 308 308 308 306 304 300 304 302 302 303 300 300 300 295 298 296 290 299 292 297 296 299 299 306 309 308 310 309 307 306
Wind_Speed
12 11 9 10 11 11 12 12 12 14 15 15 15 16 15 13 13 13 13 14 13 12 12 11 10 9 9 12 18 12 12 16 22 23 27 27 25 29 31 29 28 28 23 20 21 19 14
12 11 10 11 11 11 12 13 13 14 14 14 15 16 16 14 13 12 12 12 12 11 11 12 12 8 13 23 16 15 14 14 19 29 29 29 22 28 29 29 27 14 23 23 21 16 14
14 10 11 12 11 12 13 13 13 14 13 14 14 15 16 16 16 15 14 12 12 12 15 15 15 10 20 27 13 10 10 16 17 28 26 29 27 25 29 32 26 27 22 16 17 23 18
13 13 13 13 12 12 12 13 14 15 14 14 14 13 16 16 16 16 17 15 14 16 17 18 16 14 15 19 24 28 17 11 15 24 26 27 26 27 28 25 31 23 12 17 22 29 10
14 14 13 14 13 13 12 11 14 16 17 16 14 13 15 18 18 18 16 16 19 20 16 11 9 13 16 13 27 22 24 22 16 20 23 18 25 26 27 28 20 21 12 26 27 29 13
18 17 16 15 15 14 13 13 14 17 17 17 15 13 13 16 19 18 17 20 20 13 8 8 3 10 16 19 16 21 21 22 19 20 21 21 20 21 22 25 20 19 32 32 27 29 23
20 20 20 19 19 18 18 18 17 18 19 18 18 14 14 15 16 17 14 9 10 7 10 14 18 18 4 18 9 18 24 21 21 23 23 27 22 25 32 31 29 32 24 30 19 21 24
20 20 20 20 20 19 19 19 20 20 21 21 19 16 16 18 19 18 13 9 18 17 17 32 29 28 28 12 12 18 25 20 26 23 27 22 26 26 26 26 26 26 22 18 24 13 19
20 21 21 20 19 18 19 19 19 18 17 15 15 16 17 18 20 17 15 21 17 13 9 20 32 33 30 22 17 23 29 26 27 27 29 22 27 27 25 24 26 23 20 11 21 14 14
21 21 22 20 19 18 20 20 20 19 19 17 17 16 17 17 19 6 13 2 9 6 7 13 25 28 31 21 20 22 29 28 20 29 30 25 25 30 23 28 24 23 18 15 17 16 16
21 22 21 20 20 20 20 21 22 20 19 18 18 18 17 13 12 15 19 11 9 4 9 2 25 11 22 30 17 25 29 29 25 20 25 24 24 29 27 25 24 19 18 18 11 16 14
21 21 21 20 21 21 21 21 22 22 22 21 21 21 19 14 12 14 15 13 3 7 13 12 14 18 26 35 22 25 29 29 19 22 24 23 21 22 26 19 20 19 19 14 15 14 16
21 21 21 21 21 20 21 21 22 23 23 23 22 23 19 16 19 15 9 6 6 9 18 16 25 23 29 26 26 30 30 31 25 23 21 24 21 22 21 24 24 21 13 12 13 14 12
21 21 21 22 23 23 22 22 22 22 24 25 25 27 20 15 14 16 5 7 12 20 34 13 10 26 24 29 29 29 30 27 28 24 18 22 22 24 18 22 17 24 20 13 13 14 15
23 22 22 23 23 23 23 23 22 23 24 26 30 12 12 7 5 7 6 12 14 29 13 21 16 22 19 28 20 26 32 28 26 24 18 21 19 22 20 19 20 23 22 24 13 10 8
24 24 24 23 24 23 22 23 23 23 24 26 13 16 5 11 11 4 7 20 24 25 13 23 19 14 20 15 21 25 26 27 27 25 24 20 15 25 21 19 20 21 20 19 11 12 13
22 24 23 24 24 23 24 24 24 24 24 30 9 9 8 11 6 5 11 17 26 30 3 16 11 5 11 27 14 21 21 15 24 25 21 14 17 22 23 18 19 18 20 18 13 13 8
22 23 23 24 24 24 23 23 24 24 23 14 6 7 6 7 2 3 13 22 26 24 18 20 5 9 13 19 23 24 22 15 28 22 24 11 8 17 23 17 17 18 16 20 11 16 11
22 23 23 24 25 23 23 23 23 24 20 12 7 8 3 2 3 2 11 23 24 26 20 8 6 7 8 3 4 20 22 20 30 27 22 9 6 13 15 3 9 13 19 14 16 8 10
22 22 23 25 25 23 23 23 24 23 19 9 5 5 1 2 5 4 8 13 13 18 18 11 2 4 2 6 10 15 24 23 28 24 6 7 2 16 10 16 17 20 17 19 17 11 8
22 23 24 24 24 22 22 24 25 24 23 6 1 4 7 7 7 14 12 9 15 10 10 11 2 2 4 5 19 11 25 22 29 20 13 10 7 3 5 12 20 22 10 14 14 17 13
21 23 24 24 24 22 22 23 23 23 28 2 6 4 4 13 13 16 7 4 8 8 5 4 6 7 7 4 13 11 17 23 25 27 24 18 13 20 5 16 15 17 20 18 16 13 15
20 21 23 24 24 21 21 22 21 21 21 6 8 5 3 11 12 9 7 8 12 5 8 1 13 8 8 6 8 7 6 6 16 20 19 13 8 10 8 8 8 6 9 9 9 8 8
20 21 22 23 23 21 21 21 20 20 17 7 4 3 4 6 9 14 14 14 20 14 9 8 6 7 6 4 7 18 22 18 13 9 8 11 13 5 5 10 9 10 5 3 11 8 8
20 21 22 23 23 20 20 19 19 20 19 10 3 4 4 5 9 12 17 16 15 14 11 14 11 9 11 9 4 9 7 8 12 11 2 12 6 6 5 9 12 7 4 5 9 11 4
22 22 21 22 22 20 19 19 18 20 19 12 3 4 3 5 8 11 12 12 6 6 6 7 6 5 8 5 6 6 4 5 4 5 6 3 6 3 8 4 4 12 8 4 1 11 6
21 21 21 22 23 22 20 19 18 18 19 14 4 8 4 5 5 13 7 8 7 3 3 5 10 7 7 6 9 4 8 10 5 6 16 10 6 6 8 2 9 9 5 4 8 7 8
19 19 20 20 22 22 21 18 16 16 16 12 5 5 7 5 5 9 5 8 9 12 6 9 4 8 8 8 8 6 8 4 6 8 6 5 5 5 5 3 4 8 5 5 9 8 7
20 19 19 19 21 21 20 18 17 14 15 17 6 6 4 5 5 4 5 9 6 7 8 8 7 8 7 5 5 4 6 6 10 5 3 4 5 3 5 6 7 12 11 9 3 8 5
Wind_Direction
328 327 335 338 335 333 334 333 333 333 330 323 323 323 323 314 313 307 305 305 298 292 290 284 280 281 228 228 247 237 156 174 192 199 211 208 210 215 216 218 219 228 224 225 270 215 247
334 334 339 335 329 326 327 330 334 331 326 324 323 324 319 314 311 306 301 301 297 287 273 276 263 251 244 256 260 233 220 185 191 196 204 212 210 212 219 220 221 214 226 240 258 265 251
330 342 336 328 325 323 324 327 328 325 318 316 318 320 318 313 319 313 303 292 287 289 284 273 255 240 250 242 281 203 220 194 204 199 198 210 217 218 218 216 208 202 206 216 234 256 253
349 337 329 323 317 314 320 324 321 317 315 316 317 318 317 315 315 313 309 305 294 287 281 274 246 226 249 257 232 253 237 241 198 205 209 205 215 225 221 233 214 205 179 221 229 234 217
341 331 324 320 317 311 309 310 310 308 310 312 315 314 321 321 317 312 307 296 294 282 280 259 202 218 254 196 229 229 217 219 190 200 208 212 210 224 216 227 215 174 196 228 226 205 150
339 330 326 318 311 305 301 298 298 299 300 302 303 305 311 317 317 312 310 295 283 283 237 193 249 200 243 232 219 212 213 205 183 188 194 207 213 216 229 215 212 197 209 223 217 183 178
341 338 336 334 329 321 313 306 299 298 296 297 298 304 303 302 306 307 308 313 208 193 220 207 183 228 305 215 174 204 190 187 183 181 192 195 207 207 215 212 223 203 220 221 247 188 187
342 339 332 329 332 332 327 320 315 306 299 294 295 299 305 307 306 298 278 241 261 316 272 223 250 230 256 298 201 197 179 179 182 183 201 184 209 212 214 223 230 238 234 214 226 192 205
339 338 345 344 342 341 341 335 329 323 325 321 300 290 300 301 305 282 241 253 253 286 271 268 227 228 227 222 232 184 187 195 190 189 203 197 194 215 212 214 221 231 241 199 228 156 208
346 344 345 343 338 334 331 327 324 321 316 308 301 293 291 300 285 315 267 304 241 224 270 251 209 216 215 207 222 207 196 200 192 197 195 211 200 198 204 219 213 213 220 216 206 181 208
347 343 345 340 337 335 332 327 323 318 314 310 304 300 292 282 291 287 300 332 9 74 263 285 184 171 178 200 161 189 191 210 201 194 195 202 210 190 210 208 203 225 196 226 224 223 253
346 342 341 340 336 332 328 324 325 320 315 310 304 300 295 277 253 259 261 273 41 231 229 233 142 179 179 194 203 168 187 221 224 213 199 210 209 197 208 201 210 218 210 191 228 228 225
341 340 339 335 328 330 327 325 325 323 317 313 306 299 288 280 268 266 243 251 234 240 231 241 161 177 182 189 200 166 186 204 210 201 193 217 190 202 200 197 205 205 186 194 200 216 229
337 334 334 332 332 329 327 326 325 321 320 315 307 298 278 254 248 219 222 204 237 227 238 67 183 172 187 180 196 177 182 195 217 205 185 200 185 193 195 208 184 204 195 217 188 205 211
339 337 336 336 335 329 327 327 325 323 319 315 307 291 284 267 323 181 189 216 225 239 289 246 235 171 191 179 180 181 187 197 201 205 195 202 183 190 196 196 198 191 216 234 282 290 239
340 340 337 333 333 332 329 328 328 326 323 317 312 297 1 95 115 198 221 241 237 258 285 290 206 149 181 175 175 191 189 195 199 214 230 193 204 177 180 213 215 206 201 218 235 257 221
339 340 338 333 334 332 332 331 330 330 326 314 279 297 55 100 103 167 212 224 242 256 42 304 323 27 221 172 176 184 182 188 209 206 224 234 223 170 174 205 196 200 205 221 225 222 218
339 341 337 337 334 332 333 333 333 331 330 312 313 293 103 141 197 225 241 255 264 264 253 262 9 65 321 190 186 194 183 182 218 210 214 187 231 189 179 184 223 206 215 201 222 215 243
340 339 339 337 337 336 336 336 332 331 335 329 295 309 62 122 295 261 279 283 275 262 256 212 268 125 238 190 227 176 187 188 191 216 207 157 154 205 158 165 211 233 209 222 215 231 224
340 341 341 339 339 338 339 336 333 329 329 322 300 330 312 150 220 256 284 296 299 282 239 166 93 102 261 346 288 212 162 191 191 178 163 157 198 211 193 193 190 209 216 211 213 221 229
340 345 342 339 341 341 342 339 337 332 323 310 257 317 3 307 326 294 338 296 309 280 50 20 99 132 147 222 240 170 162 177 174 166 177 177 227 18 304 271 190 202 186 223 161 208 231
339 344 340 339 341 343 341 341 341 342 325 244 346 358 298 290 300 334 339 305 295 101 54 37 81 89 103 34 309 165 178 158 166 169 178 191 179 175 133 143 188 179 200 196 213 217 218
339 342 339 339 341 342 340 342 344 345 337 340 4 10 279 294 357 342 340 289 305 22 66 163 135 116 88 254 347 49 100 119 147 177 172 187 185 178 137 134 127 188 180 196 204 220 260
337 340 340 339 340 341 341 343 343 345 344 338 13 309 302 303 339 341 341 2 357 69 98 59 161 119 126 148 288 60 63 60 96 135 183 148 180 141 164 150 199 82 35 269 206 203 181
340 341 342 339 339 341 341 343 343 342 338 331 338 352 313 302 331 344 349 10 8 25 42 76 47 96 140 149 24 51 25 55 24 17 113 144 98 169 165 170 106 140 152 160 191 167 199
340 340 340 339 339 342 342 341 343 341 338 327 330 4 284 300 20 352 339 3 18 6 3 37 38 207 206 208 67 52 92 105 83 17 48 20 177 130 145 172 172 91 107 43 344 148 163
336 338 340 339 338 341 342 339 341 344 339 326 306 357 314 300 336 6 1 323 334 60 358 350 358 350 285 126 119 99 58 119 108 127 169 149 105 135 124 208 84 95 135 186 221 92 114
334 338 336 336 335 338 341 340 340 345 342 331 335 20 339 308 336 19 50 5 349 15 8 328 263 1 354 26 77 92 128 97 94 136 137 131 121 133 131 168 114 128 151 292 86 107 107
335 337 336 333 334 335 339 342 339 343 344 332 327 350 9 279 331 49 10 52 23 354 334 323 39 35 359 15 34 89 117 147 146 111 92 102 67 136 49 73 106 77 67 92 69 116 61